CANX-5 (40056 NORAD) Tracking and Keplerian Element Data

This shows tracking and keplerian element data for the satellite.

Feedback or suggestion? Click here.




ElementValue
Catalog40056
NameCANX-5
Epoch Orbit22692
Epoch Day322.84712611
Epoch Year2018
RAAN70.7719
Inclination98.2034
Eccentricity0.0013912
Argument of Perigee198.0022
Mean Anonmoly162.0695
Mean Motion14.74767724
Decay Rate9.2E-07
L11 40056U 14034D 18322.84712611 .00000092 00000-0 21763-4 0 9997
L22 40056 98.2034 70.7719 0013912 198.0022 162.0695 14.74767724226921

Live tracking and technical data element details for CANX-5 (NORAD 40056). CANX-5 can be tracked NOW for your location showing map with azimuth and elevation plus other details from your city location.

Track the satellite on the map from your city or location and see movement details for azimuth, elevation, latitude, longitude, range, height, and movement on the map or in text.







IsCatalogInMostPopularTable: catalog: 40056, numindb: 90
Update: records affected: 1



GetName: 40056 CANX-5

Hit Count: updated at: Tue, 20 Nov 2018 00:50:38 GMT